THOR ABLESTAR DEB, 355

Orbit data source: Space-Track

THOR ABLESTAR DEB, 355 is space debris in LEO originally from a launch on Thu, 29 Jun 1961 UTC launched from the Air Force Eastern Test Range (AFETR). Debris objects in space refer to the collection of defunct objects orbiting the Earth. Examples of debris include non-operational satellites, rocket bodies, and fragments generated from explosions, collisions, or faulty payload assembly.

Loading next visibility...
Identifier
355, 1961-015DV
Orbit
LEO
Country
Flag of USUS
Related business
Manufacturer
Unknown
Mission
Spacecraft
Bus & Motor
Unknown
Mass
Unknown
Launch date (UTC)
1961-06-29 (64 years ago)
Launch vehicle
Unknown
Launch site
Air Force Eastern Test Range (AFETR)
Object type
Payload
Rocket body
Debris
Shape & HBR
Unknown shape, 0.1 m
Radar Cross Section
Medium (>0.1 m² and <1 m²)

Expand to show TLE details & history
Last TLE update: 22 hours ago

TLE from 22 hours ago
0 THOR ABLESTAR DEB
1   355U 61015DV  25304.80321412  .00000616  00000-0  11654-2 0  9993
2   355  67.2240 146.3069 0239482   7.3103  75.9884 13.33866918118567
Epoch: 2025-10-31T19:16Z
TLE epoch observation values (Epoch: 2025-10-31T19:16:37.699Z)
Latitude
66.99591°
Longitude
-103.49347°
Altitude
1,103.544 km
Speed
7.326 km/s
True Right ascension
15h 04m 01s
True Declination
66° 52' 40"
Sunlit
Object was in daylight at epoch
Visualization orbit readout
Latitude
Unknown
Longitude
Unknown
Altitude
Unknown
Speed
Unknown
Apparent Right ascension
Unknown
Apparent Declination
Unknown
Sunlit
N/A
Visualization observer readout
Local Sidereal Time
13:29:47
Azimuth
Unknown
Elevation
Unknown
Doppler factor
Unknown
Orbital elements
Apogee altitude
1,310.423 km
Perigee altitude
950.782 km
Semi-major axis
7,508.74 km
Eccentricity
0.02395
Inclination
67.224°
RAAN
146.3069°
Arg. of periapsis
7.3103°
True anomaly
78.66946°
Mean anomaly
75.9884°
Eccentric anomaly
77.3271°
Mean motion
3.33574 °/min
Orbital period
107.92 mins
BSTAR
0.0011654
Loading maneuver chart data...
Computing Atmospheric mass density...

Documentation

Showing up to 5 results
|